Wetterdaten: Samstag, 18.02.2017
Datum Zeit Temperatur Luftfeuchte Luftdruck Regen Wind Richtung Richtung Sonnenschein ET UV Solar Taupunkt Windchill Windben
18.02.2017 00:00 5,1 C 93 % 1027,2 hPa 0,0 l/m 0,0 km/h (0 Bft) W-NW 293 0 min 0,000 mm 0,0 UV-I 0 W/m 4,1 C 5,1 C 0,0 km/h (0 Bft)
18.02.2017 00:05 5,1 C 93 % 1027,2 hPa 0,0 l/m 0,0 km/h (0 Bft) W-NW 293 0 min 0,000 mm 0,0 UV-I 0 W/m 4,1 C 5,1 C 0,0 km/h (0 Bft)
18.02.2017 00:10 5,0 C 93 % 1027,2 hPa 0,0 l/m 0,0 km/h (0 Bft) W-NW 293 0 min 0,000 mm 0,0 UV-I 0 W/m 4,0 C 5,0 C 0,0 km/h (0 Bft)
18.02.2017 00:15 5,0 C 93 % 1027,2 hPa 0,0 l/m 0,0 km/h (0 Bft) W-NW 296 0 min 0,000 mm 0,0 UV-I 0 W/m 4,0 C 5,0 C 1,6 km/h (1 Bft)
18.02.2017 00:20 4,9 C 93 % 1027,3 hPa 0,0 l/m 0,0 km/h (0 Bft) W 267 0 min 0,000 mm 0,0 UV-I 0 W/m 3,9 C 4,9 C 0,0 km/h (0 Bft)
18.02.2017 00:25 4,9 C 93 % 1027,3 hPa 0,0 l/m 0,0 km/h (0 Bft) W 272 0 min 0,000 mm 0,0 UV-I 0 W/m 3,9 C 4,9 C 0,0 km/h (0 Bft)
18.02.2017 00:30 4,9 C 93 % 1027,3 hPa 0,0 l/m 0,0 km/h (0 Bft) W-NW 301 0 min 0,000 mm 0,0 UV-I 0 W/m 3,9 C 4,9 C 0,0 km/h (0 Bft)
18.02.2017 00:35 4,9 C 93 % 1027,3 hPa 0,0 l/m 0,0 km/h (0 Bft) W-NW 301 0 min 0,000 mm 0,0 UV-I 0 W/m 3,9 C 4,9 C 0,0 km/h (0 Bft)
18.02.2017 00:40 4,9 C 92 % 1027,3 hPa 0,0 l/m 0,2 km/h (0 Bft) W 270 0 min 0,000 mm 0,0 UV-I 0 W/m 3,7 C 4,9 C 3,2 km/h (1 Bft)
18.02.2017 00:45 4,9 C 92 % 1027,3 hPa 0,0 l/m 0,0 km/h (0 Bft) W 270 0 min 0,000 mm 0,0 UV-I 0 W/m 3,7 C 4,9 C 0,0 km/h (0 Bft)
18.02.2017 00:50 4,8 C 92 % 1027,2 hPa 0,0 l/m 0,0 km/h (0 Bft) W 270 0 min 0,000 mm 0,0 UV-I 0 W/m 3,6 C 4,8 C 0,0 km/h (0 Bft)
18.02.2017 00:55 4,8 C 92 % 1027,3 hPa 0,0 l/m 0,0 km/h (0 Bft) W 270 0 min 0,000 mm 0,0 UV-I 0 W/m 3,6 C 4,8 C 0,0 km/h (0 Bft)
18.02.2017 01:00 4,8 C 92 % 1027,2 hPa 0,0 l/m 0,0 km/h (0 Bft) W-NW 296 0 min 0,000 mm 0,0 UV-I 0 W/m 3,6 C 4,8 C 0,0 km/h (0 Bft)
18.02.2017 01:05 4,8 C 92 % 1027,3 hPa 0,0 l/m 0,9 km/h (0 Bft) W 275 0 min 0,000 mm 0,0 UV-I 0 W/m 3,6 C 4,8 C 4,8 km/h (1 Bft)
18.02.2017 01:10 4,8 C 92 % 1027,3 hPa 0,0 l/m 0,0 km/h (0 Bft) W-NW 286 0 min 0,000 mm 0,0 UV-I 0 W/m 3,6 C 4,8 C 0,0 km/h (0 Bft)
18.02.2017 01:15 4,8 C 93 % 1027,3 hPa 0,0 l/m 0,1 km/h (0 Bft) W-NW 296 0 min 0,000 mm 0,0 UV-I 0 W/m 3,8 C 4,8 C 1,6 km/h (1 Bft)
18.02.2017 01:20 4,8 C 93 % 1027,3 hPa 0,0 l/m 0,0 km/h (0 Bft) W-NW 296 0 min 0,000 mm 0,0 UV-I 0 W/m 3,8 C 4,8 C 0,0 km/h (0 Bft)
18.02.2017 01:25 4,8 C 93 % 1027,3 hPa 0,0 l/m 0,0 km/h (0 Bft) W-NW 296 0 min 0,000 mm 0,0 UV-I 0 W/m 3,8 C 4,8 C 0,0 km/h (0 Bft)
18.02.2017 01:30 4,8 C 93 % 1027,3 hPa 0,0 l/m 0,0 km/h (0 Bft) W-NW 296 0 min 0,000 mm 0,0 UV-I 0 W/m 3,8 C 4,8 C 0,0 km/h (0 Bft)
18.02.2017 01:35 4,8 C 93 % 1027,3 hPa 0,0 l/m 0,0 km/h (0 Bft) W-NW 296 0 min 0,000 mm 0,0 UV-I 0 W/m 3,8 C 4,8 C 0,0 km/h (0 Bft)
18.02.2017 01:40 4,8 C 93 % 1027,3 hPa 0,0 l/m 0,0 km/h (0 Bft) W-NW 296 0 min 0,000 mm 0,0 UV-I 0 W/m 3,8 C 4,8 C 0,0 km/h (0 Bft)
18.02.2017 01:45 4,7 C 93 % 1027,3 hPa 0,0 l/m 0,0 km/h (0 Bft) W-NW 296 0 min 0,000 mm 0,0 UV-I 0 W/m 3,7 C 4,7 C 0,0 km/h (0 Bft)
18.02.2017 01:50 4,7 C 93 % 1027,3 hPa 0,0 l/m 0,0 km/h (0 Bft) W-NW 296 0 min 0,000 mm 0,0 UV-I 0 W/m 3,7 C 4,7 C 0,0 km/h (0 Bft)
18.02.2017 01:55 4,7 C 93 % 1027,3 hPa 0,0 l/m 0,0 km/h (0 Bft) W-NW 296 0 min 0,000 mm 0,0 UV-I 0 W/m 3,7 C 4,7 C 0,0 km/h (0 Bft)
18.02.2017 02:00 4,7 C 93 % 1027,3 hPa 0,0 l/m 0,0 km/h (0 Bft) W 267 0 min 0,000 mm 0,0 UV-I 0 W/m 3,7 C 4,7 C 0,0 km/h (0 Bft)
18.02.2017 02:05 4,6 C 93 % 1027,3 hPa 0,0 l/m 0,0 km/h (0 Bft) W 277 0 min 0,000 mm 0,0 UV-I 0 W/m 3,6 C 4,6 C 0,0 km/h (0 Bft)
18.02.2017 02:10 4,6 C 93 % 1027,3 hPa 0,0 l/m 0,0 km/h (0 Bft) W 263 0 min 0,000 mm 0,0 UV-I 0 W/m 3,6 C 4,6 C 0,0 km/h (0 Bft)
18.02.2017 02:15 4,6 C 93 % 1027,3 hPa 0,0 l/m 0,2 km/h (0 Bft) W 269 0 min 0,000 mm 0,0 UV-I 0 W/m 3,6 C 4,6 C 3,2 km/h (1 Bft)
18.02.2017 02:20 4,5 C 93 % 1027,4 hPa 0,0 l/m 0,0 km/h (0 Bft) W 269 0 min 0,000 mm 0,0 UV-I 0 W/m 3,5 C 4,5 C 0,0 km/h (0 Bft)
18.02.2017 02:25 4,5 C 93 % 1027,3 hPa 0,0 l/m 0,0 km/h (0 Bft) W 269 0 min 0,000 mm 0,0 UV-I 0 W/m 3,5 C 4,5 C 0,0 km/h (0 Bft)
18.02.2017 02:30 4,5 C 93 % 1027,3 hPa 0,0 l/m 0,0 km/h (0 Bft) W 269 0 min 0,000 mm 0,0 UV-I 0 W/m 3,5 C 4,5 C 0,0 km/h (0 Bft)
18.02.2017 02:35 4,5 C 93 % 1027,3 hPa 0,0 l/m 0,0 km/h (0 Bft) W 271 0 min 0,000 mm 0,0 UV-I 0 W/m 3,5 C 4,5 C 0,0 km/h (0 Bft)
18.02.2017 02:40 4,5 C 93 % 1027,3 hPa 0,0 l/m 0,3 km/h (0 Bft) W-NW 294 0 min 0,000 mm 0,0 UV-I 0 W/m 3,5 C 4,5 C 3,2 km/h (1 Bft)
18.02.2017 02:45 4,5 C 93 % 1027,4 hPa 0,0 l/m 0,0 km/h (0 Bft) W-NW 293 0 min 0,000 mm 0,0 UV-I 0 W/m 3,5 C 4,5 C 1,6 km/h (1 Bft)
18.02.2017 02:50 4,5 C 93 % 1027,3 hPa 0,0 l/m 0,0 km/h (0 Bft) W-NW 293 0 min 0,000 mm 0,0 UV-I 0 W/m 3,5 C 4,5 C 0,0 km/h (0 Bft)
18.02.2017 02:55 4,5 C 93 % 1027,3 hPa 0,0 l/m 0,2 km/h (0 Bft) W-SW 256 0 min 0,000 mm 0,0 UV-I 0 W/m 3,5 C 4,5 C 3,2 km/h (1 Bft)
18.02.2017 03:00 4,5 C 93 % 1027,3 hPa 0,0 l/m 0,0 km/h (0 Bft) W-SW 256 0 min 0,000 mm 0,0 UV-I 0 W/m 3,5 C 4,5 C 0,0 km/h (0 Bft)
18.02.2017 03:05 4,5 C 93 % 1027,2 hPa 0,0 l/m 0,0 km/h (0 Bft) W-SW 256 0 min 0,000 mm 0,0 UV-I 0 W/m 3,5 C 4,5 C 0,0 km/h (0 Bft)
18.02.2017 03:10 4,5 C 93 % 1027,3 hPa 0,0 l/m 0,0 km/h (0 Bft) W-SW 255 0 min 0,000 mm 0,0 UV-I 0 W/m 3,5 C 4,5 C 0,0 km/h (0 Bft)
18.02.2017 03:15 4,5 C 93 % 1027,3 hPa 0,0 l/m 0,0 km/h (0 Bft) W-SW 256 0 min 0,000 mm 0,0 UV-I 0 W/m 3,5 C 4,5 C 0,0 km/h (0 Bft)
18.02.2017 03:20 4,5 C 93 % 1027,3 hPa 0,0 l/m 0,0 km/h (0 Bft) W-SW 256 0 min 0,000 mm 0,0 UV-I 0 W/m 3,5 C 4,5 C 0,0 km/h (0 Bft)
18.02.2017 03:25 4,5 C 93 % 1027,3 hPa 0,0 l/m 0,0 km/h (0 Bft) W-SW 256 0 min 0,000 mm 0,0 UV-I 0 W/m 3,5 C 4,5 C 0,0 km/h (0 Bft)
18.02.2017 03:30 4,5 C 93 % 1027,2 hPa 0,0 l/m 0,0 km/h (0 Bft) W-SW 256 0 min 0,000 mm 0,0 UV-I 0 W/m 3,5 C 4,5 C 0,0 km/h (0 Bft)
18.02.2017 03:35 4,5 C 93 % 1027,2 hPa 0,0 l/m 0,0 km/h (0 Bft) W-SW 256 0 min 0,000 mm 0,0 UV-I 0 W/m 3,5 C 4,5 C 0,0 km/h (0 Bft)
18.02.2017 03:40 4,5 C 93 % 1027,1 hPa 0,0 l/m 0,0 km/h (0 Bft) W-SW 256 0 min 0,000 mm 0,0 UV-I 0 W/m 3,5 C 4,5 C 0,0 km/h (0 Bft)
18.02.2017 03:45 4,5 C 93 % 1027,0 hPa 0,0 l/m 0,0 km/h (0 Bft) W-SW 256 0 min 0,000 mm 0,0 UV-I 0 W/m 3,5 C 4,5 C 0,0 km/h (0 Bft)
18.02.2017 03:50 4,4 C 93 % 1026,9 hPa 0,0 l/m 0,0 km/h (0 Bft) W-SW 256 0 min 0,000 mm 0,0 UV-I 0 W/m 3,4 C 4,4 C 0,0 km/h (0 Bft)
18.02.2017 03:55 4,4 C 93 % 1026,8 hPa 0,0 l/m 0,0 km/h (0 Bft) W-SW 256 0 min 0,000 mm 0,0 UV-I 0 W/m 3,4 C 4,4 C 0,0 km/h (0 Bft)
18.02.2017 04:00 4,4 C 93 % 1026,9 hPa 0,0 l/m 0,0 km/h (0 Bft) W-SW 256 0 min 0,000 mm 0,0 UV-I 0 W/m 3,4 C 4,4 C 0,0 km/h (0 Bft)
18.02.2017 04:05 4,4 C 93 % 1026,8 hPa 0,0 l/m 0,0 km/h (0 Bft) W-SW 256 0 min 0,000 mm 0,0 UV-I 0 W/m 3,4 C 4,4 C 0,0 km/h (0 Bft)
18.02.2017 04:10 4,4 C 93 % 1026,8 hPa 0,0 l/m 0,0 km/h (0 Bft) W-SW 256 0 min 0,000 mm 0,0 UV-I 0 W/m 3,4 C 4,4 C 0,0 km/h (0 Bft)
18.02.2017 04:15 4,4 C 94 % 1026,8 hPa 0,0 l/m 0,0 km/h (0 Bft) W-SW 256 0 min 0,000 mm 0,0 UV-I 0 W/m 3,5 C 4,4 C 0,0 km/h (0 Bft)
18.02.2017 04:20 4,3 C 94 % 1026,8 hPa 0,0 l/m 0,0 km/h (0 Bft) W-SW 256 0 min 0,000 mm 0,0 UV-I 0 W/m 3,4 C 4,3 C 0,0 km/h (0 Bft)
18.02.2017 04:25 4,3 C 94 % 1026,8 hPa 0,0 l/m 0,0 km/h (0 Bft) W-SW 256 0 min 0,000 mm 0,0 UV-I 0 W/m 3,4 C 4,3 C 0,0 km/h (0 Bft)
18.02.2017 04:30 4,3 C 94 % 1026,8 hPa 0,0 l/m 0,0 km/h (0 Bft) W-SW 256 0 min 0,000 mm 0,0 UV-I 0 W/m 3,4 C 4,3 C 0,0 km/h (0 Bft)
18.02.2017 04:35 4,3 C 94 % 1026,9 hPa 0,0 l/m 0,0 km/h (0 Bft) W-SW 256 0 min 0,000 mm 0,0 UV-I 0 W/m 3,4 C 4,3 C 0,0 km/h (0 Bft)
18.02.2017 04:40 4,3 C 94 % 1026,8 hPa 0,0 l/m 0,0 km/h (0 Bft) W-SW 256 0 min 0,000 mm 0,0 UV-I 0 W/m 3,4 C 4,3 C 0,0 km/h (0 Bft)
18.02.2017 04:45 4,3 C 94 % 1026,9 hPa 0,0 l/m 0,0 km/h (0 Bft) W-SW 256 0 min 0,000 mm 0,0 UV-I 0 W/m 3,4 C 4,3 C 0,0 km/h (0 Bft)
18.02.2017 04:50 4,2 C 94 % 1026,9 hPa 0,0 l/m 0,0 km/h (0 Bft) W-SW 256 0 min 0,000 mm 0,0 UV-I 0 W/m 3,3 C 4,2 C 0,0 km/h (0 Bft)
18.02.2017 04:55 4,2 C 94 % 1026,9 hPa 0,0 l/m 0,0 km/h (0 Bft) W-SW 256 0 min 0,000 mm 0,0 UV-I 0 W/m 3,3 C 4,2 C 0,0 km/h (0 Bft)
18.02.2017 05:00 4,2 C 94 % 1026,9 hPa 0,0 l/m 0,0 km/h (0 Bft) W-SW 256 0 min 0,000 mm 0,0 UV-I 0 W/m 3,3 C 4,2 C 0,0 km/h (0 Bft)
18.02.2017 05:05 4,2 C 94 % 1026,9 hPa 0,0 l/m 0,0 km/h (0 Bft) W-SW 256 0 min 0,000 mm 0,0 UV-I 0 W/m 3,3 C 4,2 C 1,6 km/h (1 Bft)
18.02.2017 05:10 4,2 C 94 % 1026,9 hPa 0,0 l/m 0,0 km/h (0 Bft) W-SW 256 0 min 0,000 mm 0,0 UV-I 0 W/m 3,3 C 4,2 C 0,0 km/h (0 Bft)
18.02.2017 05:15 4,2 C 94 % 1026,9 hPa 0,0 l/m 0,0 km/h (0 Bft) W-SW 256 0 min 0,000 mm 0,0 UV-I 0 W/m 3,3 C 4,2 C 0,0 km/h (0 Bft)
18.02.2017 05:20 4,2 C 94 % 1027,0 hPa 0,0 l/m 0,0 km/h (0 Bft) W-SW 256 0 min 0,000 mm 0,0 UV-I 0 W/m 3,3 C 4,2 C 0,0 km/h (0 Bft)
18.02.2017 05:25 4,2 C 94 % 1027,0 hPa 0,0 l/m 0,0 km/h (0 Bft) W-SW 256 0 min 0,000 mm 0,0 UV-I 0 W/m 3,3 C 4,2 C 0,0 km/h (0 Bft)
18.02.2017 05:30 4,2 C 94 % 1027,0 hPa 0,0 l/m 0,0 km/h (0 Bft) W-SW 256 0 min 0,000 mm 0,0 UV-I 0 W/m 3,3 C 4,2 C 0,0 km/h (0 Bft)
18.02.2017 05:35 4,1 C 94 % 1027,1 hPa 0,0 l/m 0,0 km/h (0 Bft) W-SW 256 0 min 0,000 mm 0,0 UV-I 0 W/m 3,2 C 4,1 C 0,0 km/h (0 Bft)
18.02.2017 05:40 4,1 C 94 % 1027,1 hPa 0,0 l/m 0,0 km/h (0 Bft) W-SW 256 0 min 0,000 mm 0,0 UV-I 0 W/m 3,2 C 4,1 C 0,0 km/h (0 Bft)
18.02.2017 05:45 4,1 C 94 % 1027,1 hPa 0,0 l/m 0,0 km/h (0 Bft) W-SW 256 0 min 0,000 mm 0,0 UV-I 0 W/m 3,2 C 4,1 C 0,0 km/h (0 Bft)
18.02.2017 05:50 4,1 C 94 % 1027,1 hPa 0,0 l/m 0,0 km/h (0 Bft) W-SW 256 0 min 0,000 mm 0,0 UV-I 0 W/m 3,2 C 4,1 C 0,0 km/h (0 Bft)
18.02.2017 05:55 4,0 C 94 % 1027,2 hPa 0,0 l/m 0,0 km/h (0 Bft) W-SW 256 0 min 0,000 mm 0,0 UV-I 0 W/m 3,1 C 4,0 C 0,0 km/h (0 Bft)
18.02.2017 06:00 4,0 C 94 % 1027,2 hPa 0,0 l/m 0,0 km/h (0 Bft) W-SW 256 0 min 0,000 mm 0,0 UV-I 0 W/m 3,1 C 4,0 C 0,0 km/h (0 Bft)
18.02.2017 06:05 3,9 C 94 % 1027,2 hPa 0,0 l/m 0,4 km/h (0 Bft) W-NW 298 0 min 0,000 mm 0,0 UV-I 0 W/m 3,0 C 3,9 C 4,8 km/h (1 Bft)
18.02.2017 06:10 3,9 C 94 % 1027,1 hPa 0,0 l/m 0,0 km/h (0 Bft) W 266 0 min 0,000 mm 0,0 UV-I 0 W/m 3,0 C 3,9 C 0,0 km/h (0 Bft)
18.02.2017 06:15 4,0 C 94 % 1027,2 hPa 0,0 l/m 0,0 km/h (0 Bft) NW 317 0 min 0,000 mm 0,0 UV-I 0 W/m 3,1 C 4,0 C 0,0 km/h (0 Bft)
18.02.2017 06:20 4,0 C 94 % 1027,2 hPa 0,0 l/m 0,0 km/h (0 Bft) NW 317 0 min 0,000 mm 0,0 UV-I 0 W/m 3,1 C 4,0 C 0,0 km/h (0 Bft)
18.02.2017 06:25 4,0 C 94 % 1027,3 hPa 0,0 l/m 0,0 km/h (0 Bft) NW 317 0 min 0,000 mm 0,0 UV-I 0 W/m 3,1 C 4,0 C 0,0 km/h (0 Bft)
18.02.2017 06:30 4,0 C 94 % 1027,3 hPa 0,0 l/m 0,0 km/h (0 Bft) NW 316 0 min 0,000 mm 0,0 UV-I 0 W/m 3,1 C 4,0 C 0,0 km/h (0 Bft)
18.02.2017 06:35 4,0 C 94 % 1027,4 hPa 0,0 l/m 0,0 km/h (0 Bft) NW 316 0 min 0,000 mm 0,0 UV-I 0 W/m 3,1 C 4,0 C 0,0 km/h (0 Bft)
18.02.2017 06:40 4,0 C 94 % 1027,4 hPa 0,0 l/m 0,0 km/h (0 Bft) NW 316 0 min 0,000 mm 0,0 UV-I 0 W/m 3,1 C 4,0 C 0,0 km/h (0 Bft)
18.02.2017 06:45 4,0 C 94 % 1027,4 hPa 0,0 l/m 0,0 km/h (0 Bft) NW 316 0 min 0,000 mm 0,0 UV-I 0 W/m 3,1 C 4,0 C 0,0 km/h (0 Bft)
18.02.2017 06:50 4,0 C 94 % 1027,4 hPa 0,0 l/m 0,0 km/h (0 Bft) NW 316 0 min 0,000 mm 0,0 UV-I 0 W/m 3,1 C 4,0 C 0,0 km/h (0 Bft)
18.02.2017 06:55 4,0 C 94 % 1027,4 hPa 0,0 l/m 0,0 km/h (0 Bft) NW 316 0 min 0,000 mm 0,0 UV-I 0 W/m 3,1 C 4,0 C 0,0 km/h (0 Bft)
18.02.2017 07:00 4,0 C 94 % 1027,4 hPa 0,0 l/m 0,0 km/h (0 Bft) NW 316 0 min 0,000 mm 0,0 UV-I 0 W/m 3,1 C 4,0 C 0,0 km/h (0 Bft)
18.02.2017 07:05 4,0 C 94 % 1027,4 hPa 0,0 l/m 0,0 km/h (0 Bft) NW 316 0 min 0,000 mm 0,0 UV-I 0 W/m 3,1 C 4,0 C 0,0 km/h (0 Bft)
18.02.2017 07:10 3,9 C 94 % 1027,4 hPa 0,0 l/m 0,0 km/h (0 Bft) NW 316 0 min 0,000 mm 0,0 UV-I 0 W/m 3,0 C 3,9 C 0,0 km/h (0 Bft)
18.02.2017 07:15 3,9 C 94 % 1027,5 hPa 0,0 l/m 0,0 km/h (0 Bft) NW 316 0 min 0,000 mm 0,0 UV-I 0 W/m 3,0 C 3,9 C 0,0 km/h (0 Bft)
18.02.2017 07:20 3,9 C 94 % 1027,5 hPa 0,0 l/m 0,0 km/h (0 Bft) NW 316 0 min 0,000 mm 0,0 UV-I 0 W/m 3,0 C 3,9 C 0,0 km/h (0 Bft)
18.02.2017 07:25 4,0 C 94 % 1027,6 hPa 0,0 l/m 0,0 km/h (0 Bft) NW 316 0 min 0,000 mm 0,0 UV-I 0 W/m 3,1 C 4,0 C 0,0 km/h (0 Bft)
18.02.2017 07:30 3,9 C 94 % 1027,6 hPa 0,0 l/m 0,0 km/h (0 Bft) NW 316 0 min 0,000 mm 0,0 UV-I 0 W/m 3,0 C 3,9 C 0,0 km/h (0 Bft)
18.02.2017 07:35 3,9 C 94 % 1027,6 hPa 0,0 l/m 0,0 km/h (0 Bft) NW 316 0 min 0,000 mm 0,0 UV-I 0 W/m 3,0 C 3,9 C 0,0 km/h (0 Bft)
18.02.2017 07:40 3,9 C 94 % 1027,6 hPa 0,0 l/m 0,0 km/h (0 Bft) NW 316 0 min 0,000 mm 0,0 UV-I 0 W/m 3,0 C 3,9 C 0,0 km/h (0 Bft)
18.02.2017 07:45 3,9 C 94 % 1027,7 hPa 0,0 l/m 0,0 km/h (0 Bft) NW 316 0 min 0,000 mm 0,0 UV-I 0 W/m 3,0 C 3,9 C 0,0 km/h (0 Bft)
18.02.2017 07:50 3,9 C 94 % 1027,5 hPa 0,0 l/m 0,0 km/h (0 Bft) NW 316 0 min 0,000 mm 0,0 UV-I 0 W/m 3,0 C 3,9 C 0,0 km/h (0 Bft)
18.02.2017 07:55 3,9 C 94 % 1027,6 hPa 0,0 l/m 0,0 km/h (0 Bft) NW 316 0 min 0,000 mm 0,0 UV-I 0 W/m 3,0 C 3,9 C 0,0 km/h (0 Bft)
18.02.2017 08:00 3,8 C 94 % 1027,6 hPa 0,0 l/m 0,0 km/h (0 Bft) NW 316 0 min 0,000 mm 0,0 UV-I 4 W/m 2,9 C 3,8 C 0,0 km/h (0 Bft)
18.02.2017 08:05 3,8 C 94 % 1027,6 hPa 0,0 l/m 0,0 km/h (0 Bft) NW 316 0 min 0,000 mm 0,0 UV-I 7 W/m 2,9 C 3,8 C 0,0 km/h (0 Bft)
18.02.2017 08:10 3,9 C 94 % 1027,7 hPa 0,0 l/m 0,0 km/h (0 Bft) NW 316 0 min 0,000 mm 0,0 UV-I 7 W/m 3,0 C 3,9 C 1,6 km/h (1 Bft)
18.02.2017 08:15 3,9 C 94 % 1027,7 hPa 0,0 l/m 0,0 km/h (0 Bft) W 271 0 min 0,000 mm 0,0 UV-I 9 W/m 3,0 C 3,9 C 0,0 km/h (0 Bft)
18.02.2017 08:20 3,9 C 94 % 1027,8 hPa 0,0 l/m 0,0 km/h (0 Bft) W 270 0 min 0,000 mm 0,0 UV-I 10 W/m 3,0 C 3,9 C 0,0 km/h (0 Bft)
18.02.2017 08:25 3,9 C 94 % 1027,8 hPa 0,0 l/m 0,0 km/h (0 Bft) W 270 0 min 0,000 mm 0,0 UV-I 12 W/m 3,0 C 3,9 C 0,0 km/h (0 Bft)
18.02.2017 08:30 3,8 C 94 % 1027,8 hPa 0,0 l/m 0,0 km/h (0 Bft) W 270 0 min 0,000 mm 0,0 UV-I 14 W/m 2,9 C 3,8 C 0,0 km/h (0 Bft)
18.02.2017 08:35 3,9 C 94 % 1027,8 hPa 0,0 l/m 0,0 km/h (0 Bft) W 270 0 min 0,000 mm 0,0 UV-I 15 W/m 3,0 C 3,9 C 0,0 km/h (0 Bft)
18.02.2017 08:40 3,9 C 94 % 1027,8 hPa 0,0 l/m 0,0 km/h (0 Bft) W 270 0 min 0,000 mm 0,0 UV-I 17 W/m 3,0 C 3,9 C 0,0 km/h (0 Bft)
18.02.2017 08:45 3,9 C 94 % 1027,8 hPa 0,0 l/m 0,0 km/h (0 Bft) W 270 0 min 0,000 mm 0,0 UV-I 18 W/m 3,0 C 3,9 C 0,0 km/h (0 Bft)
18.02.2017 08:50 3,9 C 94 % 1027,8 hPa 0,0 l/m 0,0 km/h (0 Bft) W 270 0 min 0,000 mm 0,0 UV-I 21 W/m 3,0 C 3,9 C 0,0 km/h (0 Bft)
18.02.2017 08:55 3,9 C 94 % 1027,8 hPa 0,0 l/m 0,0 km/h (0 Bft) W 270 0 min 0,000 mm 0,0 UV-I 24 W/m 3,0 C 3,9 C 0,0 km/h (0 Bft)
18.02.2017 09:00 4,0 C 94 % 1027,8 hPa 0,0 l/m 0,0 km/h (0 Bft) W 270 0 min 0,000 mm 0,0 UV-I 27 W/m 3,1 C 4,0 C 0,0 km/h (0 Bft)
18.02.2017 09:05 4,1 C 94 % 1027,8 hPa 0,0 l/m 0,0 km/h (0 Bft) W 270 0 min 0,000 mm 0,0 UV-I 29 W/m 3,2 C 4,1 C 0,0 km/h (0 Bft)
18.02.2017 09:10 4,1 C 94 % 1027,8 hPa 0,0 l/m 0,0 km/h (0 Bft) W 270 0 min 0,000 mm 0,0 UV-I 32 W/m 3,2 C 4,1 C 0,0 km/h (0 Bft)
18.02.2017 09:15 4,1 C 94 % 1027,9 hPa 0,0 l/m 0,0 km/h (0 Bft) W 270 0 min 0,000 mm 0,0 UV-I 35 W/m 3,2 C 4,1 C 0,0 km/h (0 Bft)
18.02.2017 09:20 4,2 C 94 % 1027,9 hPa 0,0 l/m 0,0 km/h (0 Bft) W 270 0 min 0,000 mm 0,0 UV-I 36 W/m 3,3 C 4,2 C 0,0 km/h (0 Bft)
18.02.2017 09:25 4,2 C 94 % 1027,9 hPa 0,0 l/m 0,0 km/h (0 Bft) W 270 0 min 0,000 mm 0,0 UV-I 39 W/m 3,3 C 4,2 C 0,0 km/h (0 Bft)
18.02.2017 09:30 4,2 C 94 % 1027,9 hPa 0,0 l/m 0,0 km/h (0 Bft) W 270 0 min 0,000 mm 0,0 UV-I 41 W/m 3,3 C 4,2 C 0,0 km/h (0 Bft)
18.02.2017 09:35 4,2 C 94 % 1027,9 hPa 0,0 l/m 0,0 km/h (0 Bft) W 270 0 min 0,000 mm 0,0 UV-I 42 W/m 3,3 C 4,2 C 0,0 km/h (0 Bft)
18.02.2017 09:40 4,2 C 94 % 1027,9 hPa 0,0 l/m 0,0 km/h (0 Bft) W 270 0 min 0,000 mm 0,0 UV-I 45 W/m 3,3 C 4,2 C 0,0 km/h (0 Bft)
18.02.2017 09:45 4,2 C 94 % 1027,9 hPa 0,0 l/m 0,0 km/h (0 Bft) W 270 0 min 0,000 mm 0,0 UV-I 50 W/m 3,3 C 4,2 C 0,0 km/h (0 Bft)
18.02.2017 09:50 4,3 C 94 % 1028,0 hPa 0,0 l/m 0,0 km/h (0 Bft) W 270 0 min 0,000 mm 0,0 UV-I 53 W/m 3,4 C 4,3 C 0,0 km/h (0 Bft)
18.02.2017 09:55 4,3 C 94 % 1027,9 hPa 0,0 l/m 0,0 km/h (0 Bft) W 270 0 min 0,000 mm 0,0 UV-I 54 W/m 3,4 C 4,3 C 0,0 km/h (0 Bft)
18.02.2017 10:00 4,4 C 94 % 1028,0 hPa 0,0 l/m 0,0 km/h (0 Bft) W 270 0 min 0,000 mm 0,0 UV-I 54 W/m 3,5 C 4,4 C 0,0 km/h (0 Bft)
18.02.2017 10:05 4,5 C 94 % 1028,0 hPa 0,0 l/m 0,0 km/h (0 Bft) W 270 0 min 0,025 mm 0,0 UV-I 55 W/m 3,6 C 4,5 C 0,0 km/h (0 Bft)
18.02.2017 10:10 4,6 C 94 % 1028,1 hPa 0,0 l/m 0,0 km/h (0 Bft) W 270 0 min 0,000 mm 0,0 UV-I 61 W/m 3,7 C 4,6 C 0,0 km/h (0 Bft)
18.02.2017 10:15 4,6 C 94 % 1028,1 hPa 0,0 l/m 0,0 km/h (0 Bft) W 270 0 min 0,000 mm 0,2 UV-I 66 W/m 3,7 C 4,6 C 0,0 km/h (0 Bft)
18.02.2017 10:20 4,6 C 94 % 1028,1 hPa 0,0 l/m 0,0 km/h (0 Bft) W 270 0 min 0,000 mm 0,3 UV-I 67 W/m 3,7 C 4,6 C 0,0 km/h (0 Bft)
18.02.2017 10:25 4,6 C 94 % 1028,0 hPa 0,0 l/m 0,0 km/h (0 Bft) W 270 0 min 0,000 mm 0,5 UV-I 73 W/m 3,7 C 4,6 C 0,0 km/h (0 Bft)
18.02.2017 10:30 4,6 C 93 % 1028,1 hPa 0,0 l/m 0,0 km/h (0 Bft) W 270 0 min 0,000 mm 0,5 UV-I 82 W/m 3,6 C 4,6 C 0,0 km/h (0 Bft)
18.02.2017 10:35 4,7 C 93 % 1028,1 hPa 0,0 l/m 0,0 km/h (0 Bft) W 270 0 min 0,000 mm 0,5 UV-I 86 W/m 3,7 C 4,7 C 0,0 km/h (0 Bft)
18.02.2017 10:40 4,7 C 93 % 1028,0 hPa 0,0 l/m 0,0 km/h (0 Bft) W 270 0 min 0,000 mm 0,6 UV-I 93 W/m 3,7 C 4,7 C 0,0 km/h (0 Bft)
18.02.2017 10:45 4,8 C 92 % 1028,1 hPa 0,0 l/m 0,0 km/h (0 Bft) W 270 0 min 0,000 mm 0,5 UV-I 85 W/m 3,6 C 4,8 C 0,0 km/h (0 Bft)
18.02.2017 10:50 4,8 C 92 % 1028,1 hPa 0,0 l/m 0,0 km/h (0 Bft) W 270 0 min 0,000 mm 0,5 UV-I 86 W/m 3,6 C 4,8 C 0,0 km/h (0 Bft)
18.02.2017 10:55 4,9 C 91 % 1028,1 hPa 0,0 l/m 0,0 km/h (0 Bft) W 270 0 min 0,000 mm 0,6 UV-I 91 W/m 3,6 C 4,9 C 0,0 km/h (0 Bft)
18.02.2017 11:00 5,0 C 91 % 1028,1 hPa 0,0 l/m 0,0 km/h (0 Bft) W 270 0 min 0,000 mm 0,6 UV-I 95 W/m 3,7 C 5,0 C 0,0 km/h (0 Bft)
18.02.2017 11:05 5,1 C 91 % 1028,1 hPa 0,0 l/m 0,0 km/h (0 Bft) W 270 0 min 0,026 mm 0,6 UV-I 104 W/m 3,8 C 5,1 C 0,0 km/h (0 Bft)
18.02.2017 11:10 5,2 C 91 % 1028,1 hPa 0,0 l/m 0,0 km/h (0 Bft) W 270 0 min 0,000 mm 0,6 UV-I 100 W/m 3,9 C 5,2 C 0,0 km/h (0 Bft)
18.02.2017 11:15 5,3 C 91 % 1028,1 hPa 0,0 l/m 0,0 km/h (0 Bft) W 270 0 min 0,000 mm 0,6 UV-I 95 W/m 4,0 C 5,3 C 0,0 km/h (0 Bft)
18.02.2017 11:20 5,4 C 91 % 1028,1 hPa 0,0 l/m 0,0 km/h (0 Bft) W 270 0 min 0,000 mm 0,6 UV-I 97 W/m 4,1 C 5,4 C 0,0 km/h (0 Bft)
18.02.2017 11:25 5,6 C 90 % 1028,1 hPa 0,0 l/m 0,0 km/h (0 Bft) W 270 0 min 0,000 mm 0,6 UV-I 96 W/m 4,1 C 5,6 C 0,0 km/h (0 Bft)
18.02.2017 11:30 5,7 C 90 % 1028,1 hPa 0,0 l/m 0,0 km/h (0 Bft) W 270 0 min 0,000 mm 0,6 UV-I 95 W/m 4,2 C 5,7 C 0,0 km/h (0 Bft)
18.02.2017 11:35 5,7 C 90 % 1028,1 hPa 0,0 l/m 0,0 km/h (0 Bft) W 270 0 min 0,000 mm 0,6 UV-I 92 W/m 4,2 C 5,7 C 0,0 km/h (0 Bft)
18.02.2017 11:40 5,8 C 89 % 1028,2 hPa 0,0 l/m 0,0 km/h (0 Bft) W 270 0 min 0,000 mm 0,6 UV-I 89 W/m 4,1 C 5,8 C 0,0 km/h (0 Bft)
18.02.2017 11:45 5,8 C 89 % 1028,2 hPa 0,0 l/m 0,0 km/h (0 Bft) W 270 0 min 0,000 mm 0,6 UV-I 92 W/m 4,1 C 5,8 C 0,0 km/h (0 Bft)
18.02.2017 11:50 5,7 C 89 % 1028,2 hPa 0,0 l/m 0,0 km/h (0 Bft) W 270 0 min 0,000 mm 0,7 UV-I 98 W/m 4,0 C 5,7 C 0,0 km/h (0 Bft)
18.02.2017 11:55 5,7 C 89 % 1028,2 hPa 0,0 l/m 0,0 km/h (0 Bft) W 270 0 min 0,000 mm 0,7 UV-I 112 W/m 4,0 C 5,7 C 0,0 km/h (0 Bft)
18.02.2017 12:00 5,8 C 89 % 1028,1 hPa 0,0 l/m 0,0 km/h (0 Bft) W 270 0 min 0,000 mm 0,8 UV-I 126 W/m 4,1 C 5,8 C 0,0 km/h (0 Bft)
18.02.2017 12:05 5,9 C 89 % 1028,1 hPa 0,0 l/m 0,0 km/h (0 Bft) W 270 0 min 0,051 mm 0,8 UV-I 136 W/m 4,2 C 5,9 C 0,0 km/h (0 Bft)
18.02.2017 12:10 6,0 C 88 % 1028,0 hPa 0,0 l/m 0,0 km/h (0 Bft) W 270 0 min 0,000 mm 0,9 UV-I 142 W/m 4,2 C 6,0 C 0,0 km/h (0 Bft)
18.02.2017 12:15 6,1 C 87 % 1028,0 hPa 0,0 l/m 0,0 km/h (0 Bft) W 270 0 min 0,000 mm 0,9 UV-I 150 W/m 4,1 C 6,1 C 0,0 km/h (0 Bft)
18.02.2017 12:20 6,2 C 88 % 1027,9 hPa 0,0 l/m 0,0 km/h (0 Bft) W 270 0 min 0,000 mm 0,9 UV-I 157 W/m 4,4 C 6,2 C 0,0 km/h (0 Bft)
18.02.2017 12:25 6,3 C 87 % 1027,9 hPa 0,0 l/m 0,0 km/h (0 Bft) W 269 0 min 0,000 mm 0,9 UV-I 161 W/m 4,3 C 6,3 C 0,0 km/h (0 Bft)
18.02.2017 12:30 6,4 C 87 % 1027,9 hPa 0,0 l/m 0,0 km/h (0 Bft) W 270 0 min 0,000 mm 1,0 UV-I 180 W/m 4,4 C 6,4 C 0,0 km/h (0 Bft)
18.02.2017 12:35 6,5 C 86 % 1028,0 hPa 0,0 l/m 0,0 km/h (0 Bft) W 269 0 min 0,000 mm 1,1 UV-I 183 W/m 4,3 C 6,5 C 0,0 km/h (0 Bft)
18.02.2017 12:40 6,5 C 81 % 1027,9 hPa 0,0 l/m 0,8 km/h (0 Bft) NW 307 0 min 0,000 mm 1,1 UV-I 181 W/m 3,5 C 6,5 C 6,4 km/h (2 Bft)
18.02.2017 12:45 6,6 C 79 % 1027,9 hPa 0,0 l/m 0,0 km/h (0 Bft) NW 307 0 min 0,000 mm 1,1 UV-I 183 W/m 3,2 C 6,6 C 0,0 km/h (0 Bft)
18.02.2017 12:50 6,7 C 79 % 1027,8 hPa 0,0 l/m 0,0 km/h (0 Bft) S 173 0 min 0,000 mm 0,9 UV-I 160 W/m 3,3 C 6,7 C 0,0 km/h (0 Bft)
18.02.2017 12:55 6,8 C 79 % 1027,7 hPa 0,0 l/m 0,0 km/h (0 Bft) SW 217 0 min 0,000 mm 0,8 UV-I 132 W/m 3,4 C 6,8 C 0,0 km/h (0 Bft)
18.02.2017 13:00 6,8 C 76 % 1027,7 hPa 0,0 l/m 0,0 km/h (0 Bft) S-SW 193 0 min 0,000 mm 0,8 UV-I 119 W/m 2,9 C 6,8 C 0,0 km/h (0 Bft)
18.02.2017 13:05 6,8 C 78 % 1027,7 hPa 0,0 l/m 0,0 km/h (0 Bft) S-SW 196 0 min 0,076 mm 0,7 UV-I 101 W/m 3,2 C 6,8 C 0,0 km/h (0 Bft)
18.02.2017 13:10 6,9 C 77 % 1027,7 hPa 0,0 l/m 0,0 km/h (0 Bft) S-SW 196 0 min 0,000 mm 0,7 UV-I 98 W/m 3,2 C 6,9 C 0,0 km/h (0 Bft)
18.02.2017 13:15 7,0 C 76 % 1027,6 hPa 0,0 l/m 0,0 km/h (0 Bft) S-SW 196 0 min 0,000 mm 0,6 UV-I 89 W/m 3,1 C 7,0 C 0,0 km/h (0 Bft)
18.02.2017 13:20 6,9 C 73 % 1027,6 hPa 0,0 l/m 0,0 km/h (0 Bft) S-SW 196 0 min 0,000 mm 0,6 UV-I 83 W/m 2,4 C 6,9 C 0,0 km/h (0 Bft)
18.02.2017 13:25 6,9 C 75 % 1027,5 hPa 0,0 l/m 0,0 km/h (0 Bft) S-SW 196 0 min 0,000 mm 0,5 UV-I 75 W/m 2,8 C 6,9 C 0,0 km/h (0 Bft)
18.02.2017 13:30 6,8 C 75 % 1027,5 hPa 0,0 l/m 0,0 km/h (0 Bft) S-SW 196 0 min 0,000 mm 0,5 UV-I 73 W/m 2,7 C 6,8 C 0,0 km/h (0 Bft)
18.02.2017 13:35 6,8 C 76 % 1027,5 hPa 0,0 l/m 0,0 km/h (0 Bft) S-SW 196 0 min 0,000 mm 0,5 UV-I 75 W/m 2,9 C 6,8 C 0,0 km/h (0 Bft)
18.02.2017 13:40 6,8 C 76 % 1027,4 hPa 0,0 l/m 0,0 km/h (0 Bft) S-SW 197 0 min 0,000 mm 0,5 UV-I 79 W/m 2,9 C 6,8 C 0,0 km/h (0 Bft)
18.02.2017 13:45 6,8 C 76 % 1027,3 hPa 0,0 l/m 0,0 km/h (0 Bft) S-SW 197 0 min 0,000 mm 0,5 UV-I 80 W/m 2,9 C 6,8 C 0,0 km/h (0 Bft)
18.02.2017 13:50 6,8 C 75 % 1027,3 hPa 0,0 l/m 0,0 km/h (0 Bft) S-SW 197 0 min 0,000 mm 0,5 UV-I 76 W/m 2,7 C 6,8 C 0,0 km/h (0 Bft)
18.02.2017 13:55 6,8 C 77 % 1027,3 hPa 0,0 l/m 0,0 km/h (0 Bft) S-SW 197 0 min 0,000 mm 0,5 UV-I 72 W/m 3,1 C 6,8 C 0,0 km/h (0 Bft)
18.02.2017 14:00 6,9 C 78 % 1027,3 hPa 0,0 l/m 0,0 km/h (0 Bft) S-SW 197 0 min 0,000 mm 0,5 UV-I 69 W/m 3,3 C 6,9 C 0,0 km/h (0 Bft)
18.02.2017 14:05 7,0 C 76 % 1027,2 hPa 0,0 l/m 0,0 km/h (0 Bft) S-SW 197 0 min 0,025 mm 0,5 UV-I 69 W/m 3,1 C 7,0 C 0,0 km/h (0 Bft)
18.02.2017 14:10 7,0 C 76 % 1027,2 hPa 0,0 l/m 0,0 km/h (0 Bft) S-SW 197 0 min 0,000 mm 0,5 UV-I 71 W/m 3,1 C 7,0 C 0,0 km/h (0 Bft)
18.02.2017 14:15 6,9 C 73 % 1027,1 hPa 0,0 l/m 0,3 km/h (0 Bft) W 278 0 min 0,000 mm 0,6 UV-I 84 W/m 2,4 C 6,9 C 3,2 km/h (1 Bft)
18.02.2017 14:20 6,8 C 75 % 1027,1 hPa 0,0 l/m 0,1 km/h (0 Bft) W-NW 301 0 min 0,000 mm 0,6 UV-I 98 W/m 2,7 C 6,8 C 1,6 km/h (1 Bft)
18.02.2017 14:25 6,7 C 73 % 1027,1 hPa 0,0 l/m 1,5 km/h (1 Bft) W-NW 300 0 min 0,000 mm 0,6 UV-I 104 W/m 2,2 C 6,7 C 6,4 km/h (2 Bft)
18.02.2017 14:30 6,7 C 74 % 1027,0 hPa 0,0 l/m 0,6 km/h (0 Bft) W-NW 297 0 min 0,000 mm 0,6 UV-I 102 W/m 2,4 C 6,7 C 4,8 km/h (1 Bft)
18.02.2017 14:35 6,8 C 74 % 1027,0 hPa 0,0 l/m 0,0 km/h (0 Bft) W-NW 297 0 min 0,000 mm 0,6 UV-I 91 W/m 2,5 C 6,8 C 0,0 km/h (0 Bft)
18.02.2017 14:40 6,8 C 74 % 1027,0 hPa 0,0 l/m 0,1 km/h (0 Bft) W-NW 288 0 min 0,000 mm 0,6 UV-I 90 W/m 2,5 C 6,8 C 3,2 km/h (1 Bft)
18.02.2017 14:45 6,9 C 72 % 1027,0 hPa 0,0 l/m 0,5 km/h (0 Bft) W-NW 302 0 min 0,000 mm 0,6 UV-I 99 W/m 2,2 C 6,9 C 4,8 km/h (1 Bft)
18.02.2017 14:50 6,8 C 72 % 1026,9 hPa 0,0 l/m 1,1 km/h (1 Bft) W-NW 288 0 min 0,000 mm 0,6 UV-I 101 W/m 2,1 C 6,8 C 8,0 km/h (2 Bft)
18.02.2017 14:55 6,7 C 72 % 1026,9 hPa 0,0 l/m 0,2 km/h (0 Bft) W 279 0 min 0,000 mm 0,6 UV-I 106 W/m 2,0 C 6,7 C 1,6 km/h (1 Bft)
18.02.2017 15:00 6,7 C 70 % 1026,9 hPa 0,0 l/m 0,5 km/h (0 Bft) W-NW 294 0 min 0,000 mm 0,6 UV-I 100 W/m 1,6 C 6,7 C 4,8 km/h (1 Bft)
18.02.2017 15:05 6,6 C 71 % 1026,9 hPa 0,0 l/m 0,0 km/h (0 Bft) W-NW 293 0 min 0,051 mm 0,5 UV-I 90 W/m 1,7 C 6,6 C 0,0 km/h (0 Bft)
18.02.2017 15:10 6,6 C 72 % 1026,8 hPa 0,0 l/m 0,0 km/h (0 Bft) W-NW 295 0 min 0,000 mm 0,5 UV-I 82 W/m 1,9 C 6,6 C 0,0 km/h (0 Bft)
18.02.2017 15:15 6,7 C 74 % 1026,9 hPa 0,0 l/m 0,0 km/h (0 Bft) W-NW 295 0 min 0,000 mm 0,5 UV-I 80 W/m 2,4 C 6,7 C 0,0 km/h (0 Bft)
18.02.2017 15:20 6,8 C 73 % 1026,9 hPa 0,0 l/m 0,0 km/h (0 Bft) N-NW 327 0 min 0,000 mm 0,2 UV-I 77 W/m 2,3 C 6,8 C 0,0 km/h (0 Bft)
18.02.2017 15:25 6,8 C 74 % 1026,9 hPa 0,0 l/m 0,0 km/h (0 Bft) NW 319 0 min 0,000 mm 0,0 UV-I 70 W/m 2,5 C 6,8 C 0,0 km/h (0 Bft)
18.02.2017 15:30 6,8 C 73 % 1026,9 hPa 0,0 l/m 0,0 km/h (0 Bft) NW 319 0 min 0,000 mm 0,0 UV-I 64 W/m 2,3 C 6,8 C 0,0 km/h (0 Bft)
18.02.2017 15:35 6,8 C 72 % 1026,9 hPa 0,0 l/m 0,0 km/h (0 Bft) NW 315 0 min 0,000 mm 0,0 UV-I 61 W/m 2,1 C 6,8 C 0,0 km/h (0 Bft)
18.02.2017 15:40 6,7 C 73 % 1027,0 hPa 0,0 l/m 0,2 km/h (0 Bft) W-NW 302 0 min 0,000 mm 0,0 UV-I 60 W/m 2,2 C 6,7 C 3,2 km/h (1 Bft)
18.02.2017 15:45 6,6 C 74 % 1027,0 hPa 0,0 l/m 0,0 km/h (0 Bft) N-NW 327 0 min 0,000 mm 0,0 UV-I 58 W/m 2,3 C 6,6 C 0,0 km/h (0 Bft)
18.02.2017 15:50 6,6 C 75 % 1027,0 hPa 0,0 l/m 0,0 km/h (0 Bft) NW 306 0 min 0,000 mm 0,0 UV-I 58 W/m 2,5 C 6,6 C 0,0 km/h (0 Bft)
18.02.2017 15:55 6,6 C 73 % 1026,9 hPa 0,0 l/m 0,0 km/h (0 Bft) N-NW 339 0 min 0,000 mm 0,0 UV-I 58 W/m 2,1 C 6,6 C 1,6 km/h (1 Bft)
18.02.2017 16:00 6,4 C 71 % 1026,9 hPa 0,0 l/m 1,0 km/h (0 Bft) W 277 0 min 0,000 mm 0,0 UV-I 54 W/m 1,5 C 6,4 C 4,8 km/h (1 Bft)
18.02.2017 16:05 6,3 C 71 % 1026,9 hPa 0,0 l/m 0,0 km/h (0 Bft) W 278 0 min 0,025 mm 0,0 UV-I 49 W/m 1,4 C 6,3 C 0,0 km/h (0 Bft)
18.02.2017 16:10 6,3 C 72 % 1026,9 hPa 0,0 l/m 0,0 km/h (0 Bft) W 278 0 min 0,000 mm 0,0 UV-I 43 W/m 1,6 C 6,3 C 0,0 km/h (0 Bft)
18.02.2017 16:15 6,4 C 73 % 1026,9 hPa 0,0 l/m 0,0 km/h (0 Bft) W 278 0 min 0,000 mm 0,0 UV-I 39 W/m 1,9 C 6,4 C 0,0 km/h (0 Bft)
18.02.2017 16:20 6,4 C 73 % 1026,9 hPa 0,0 l/m 0,0 km/h (0 Bft) NW 315 0 min 0,000 mm 0,0 UV-I 39 W/m 1,9 C 6,4 C 0,0 km/h (0 Bft)
18.02.2017 16:25 6,4 C 73 % 1026,9 hPa 0,0 l/m 0,0 km/h (0 Bft) W 281 0 min 0,000 mm 0,0 UV-I 37 W/m 1,9 C 6,4 C 0,0 km/h (0 Bft)
18.02.2017 16:30 6,3 C 72 % 1026,9 hPa 0,0 l/m 0,0 km/h (0 Bft) W 281 0 min 0,000 mm 0,0 UV-I 33 W/m 1,6 C 6,3 C 0,0 km/h (0 Bft)
18.02.2017 16:35 6,3 C 72 % 1026,8 hPa 0,0 l/m 0,0 km/h (0 Bft) W 281 0 min 0,000 mm 0,0 UV-I 33 W/m 1,6 C 6,3 C 0,0 km/h (0 Bft)
18.02.2017 16:40 6,3 C 73 % 1026,8 hPa 0,0 l/m 0,0 km/h (0 Bft) W 281 0 min 0,000 mm 0,0 UV-I 33 W/m 1,8 C 6,3 C 0,0 km/h (0 Bft)
18.02.2017 16:45 6,4 C 76 % 1026,8 hPa 0,0 l/m 0,0 km/h (0 Bft) W 281 0 min 0,000 mm 0,0 UV-I 29 W/m 2,5 C 6,4 C 0,0 km/h (0 Bft)
18.02.2017 16:50 6,4 C 73 % 1026,8 hPa 0,0 l/m 0,0 km/h (0 Bft) W 281 0 min 0,000 mm 0,0 UV-I 26 W/m 1,9 C 6,4 C 0,0 km/h (0 Bft)
18.02.2017 16:55 6,4 C 74 % 1026,9 hPa 0,0 l/m 0,0 km/h (0 Bft) W 281 0 min 0,000 mm 0,0 UV-I 23 W/m 2,1 C 6,4 C 0,0 km/h (0 Bft)
18.02.2017 17:00 6,4 C 75 % 1026,9 hPa 0,0 l/m 0,0 km/h (0 Bft) W 281 0 min 0,000 mm 0,0 UV-I 20 W/m 2,3 C 6,4 C 0,0 km/h (0 Bft)
18.02.2017 17:05 6,4 C 75 % 1026,9 hPa 0,0 l/m 0,0 km/h (0 Bft) W 281 0 min 0,026 mm 0,0 UV-I 17 W/m 2,3 C 6,4 C 0,0 km/h (0 Bft)
18.02.2017 17:10 6,4 C 78 % 1026,9 hPa 0,0 l/m 0,0 km/h (0 Bft) W 281 0 min 0,000 mm 0,0 UV-I 13 W/m 2,8 C 6,4 C 0,0 km/h (0 Bft)
18.02.2017 17:15 6,4 C 79 % 1027,0 hPa 0,0 l/m 0,0 km/h (0 Bft) W 281 0 min 0,000 mm 0,0 UV-I 11 W/m 3,0 C 6,4 C 0,0 km/h (0 Bft)
18.02.2017 17:20 6,3 C 79 % 1027,0 hPa 0,0 l/m 0,0 km/h (0 Bft) W 281 0 min 0,000 mm 0,0 UV-I 10 W/m 2,9 C 6,3 C 0,0 km/h (0 Bft)
18.02.2017 17:25 6,3 C 74 % 1027,0 hPa 0,0 l/m 0,0 km/h (0 Bft) W-NW 284 0 min 0,000 mm 0,0 UV-I 8 W/m 2,0 C 6,3 C 1,6 km/h (1 Bft)
18.02.2017 17:30 6,2 C 75 % 1027,0 hPa 0,0 l/m 0,0 km/h (0 Bft) W-NW 284 0 min 0,000 mm 0,0 UV-I 6 W/m 2,1 C 6,2 C 0,0 km/h (0 Bft)
18.02.2017 17:35 6,2 C 73 % 1027,0 hPa 0,0 l/m 0,0 km/h (0 Bft) W-NW 284 0 min 0,000 mm 0,0 UV-I 2 W/m 1,7 C 6,2 C 0,0 km/h (0 Bft)
18.02.2017 17:40 6,2 C 78 % 1027,0 hPa 0,0 l/m 0,0 km/h (0 Bft) W-NW 284 0 min 0,000 mm 0,0 UV-I 0 W/m 2,7 C 6,2 C 0,0 km/h (0 Bft)
18.02.2017 17:45 6,2 C 78 % 1027,0 hPa 0,0 l/m 0,0 km/h (0 Bft) W-NW 284 0 min 0,000 mm 0,0 UV-I 0 W/m 2,7 C 6,2 C 0,0 km/h (0 Bft)
18.02.2017 17:50 6,0 C 77 % 1027,0 hPa 0,0 l/m 0,0 km/h (0 Bft) W-NW 284 0 min 0,000 mm 0,0 UV-I 0 W/m 2,3 C 6,0 C 0,0 km/h (0 Bft)
18.02.2017 17:55 5,9 C 80 % 1027,0 hPa 0,0 l/m 0,0 km/h (0 Bft) W-NW 284 0 min 0,000 mm 0,0 UV-I 0 W/m 2,7 C 5,9 C 0,0 km/h (0 Bft)
18.02.2017 18:00 5,9 C 81 % 1027,0 hPa 0,0 l/m 0,0 km/h (0 Bft) W-NW 284 0 min 0,000 mm 0,0 UV-I 0 W/m 2,9 C 5,9 C 0,0 km/h (0 Bft)
18.02.2017 18:05 5,8 C 81 % 1027,1 hPa 0,0 l/m 0,0 km/h (0 Bft) W-NW 284 0 min 0,000 mm 0,0 UV-I 0 W/m 2,8 C 5,8 C 0,0 km/h (0 Bft)
18.02.2017 18:10 5,8 C 82 % 1027,0 hPa 0,0 l/m 0,0 km/h (0 Bft) W-NW 284 0 min 0,000 mm 0,0 UV-I 0 W/m 3,0 C 5,8 C 0,0 km/h (0 Bft)
18.02.2017 18:15 5,7 C 83 % 1027,0 hPa 0,0 l/m 0,0 km/h (0 Bft) W-NW 284 0 min 0,000 mm 0,0 UV-I 0 W/m 3,0 C 5,7 C 0,0 km/h (0 Bft)
18.02.2017 18:20 5,7 C 83 % 1027,0 hPa 0,0 l/m 0,0 km/h (0 Bft) W-NW 284 0 min 0,000 mm 0,0 UV-I 0 W/m 3,0 C 5,7 C 0,0 km/h (0 Bft)
18.02.2017 18:25 5,6 C 83 % 1026,9 hPa 0,0 l/m 0,0 km/h (0 Bft) W-NW 284 0 min 0,000 mm 0,0 UV-I 0 W/m 2,9 C 5,6 C 0,0 km/h (0 Bft)
18.02.2017 18:30 5,5 C 84 % 1026,9 hPa 0,0 l/m 0,0 km/h (0 Bft) W-NW 284 0 min 0,000 mm 0,0 UV-I 0 W/m 3,0 C 5,5 C 0,0 km/h (0 Bft)
18.02.2017 18:35 5,4 C 84 % 1026,9 hPa 0,0 l/m 0,0 km/h (0 Bft) W-NW 284 0 min 0,000 mm 0,0 UV-I 0 W/m 2,9 C 5,4 C 0,0 km/h (0 Bft)
18.02.2017 18:40 5,3 C 84 % 1026,8 hPa 0,0 l/m 0,0 km/h (0 Bft) W-NW 284 0 min 0,000 mm 0,0 UV-I 0 W/m 2,8 C 5,3 C 0,0 km/h (0 Bft)
18.02.2017 18:45 5,2 C 84 % 1026,8 hPa 0,0 l/m 0,0 km/h (0 Bft) W-NW 284 0 min 0,000 mm 0,0 UV-I 0 W/m 2,7 C 5,2 C 0,0 km/h (0 Bft)
18.02.2017 18:50 5,1 C 85 % 1026,8 hPa 0,0 l/m 0,0 km/h (0 Bft) W-NW 284 0 min 0,000 mm 0,0 UV-I 0 W/m 2,8 C 5,1 C 0,0 km/h (0 Bft)
18.02.2017 18:55 5,0 C 85 % 1026,7 hPa 0,0 l/m 0,0 km/h (0 Bft) W-NW 284 0 min 0,000 mm 0,0 UV-I 0 W/m 2,7 C 5,0 C 0,0 km/h (0 Bft)
18.02.2017 19:00 4,9 C 85 % 1026,8 hPa 0,0 l/m 0,0 km/h (0 Bft) W-NW 284 0 min 0,000 mm 0,0 UV-I 0 W/m 2,6 C 4,9 C 0,0 km/h (0 Bft)
18.02.2017 19:05 4,8 C 85 % 1026,7 hPa 0,0 l/m 0,0 km/h (0 Bft) W-NW 284 0 min 0,000 mm 0,0 UV-I 0 W/m 2,5 C 4,8 C 0,0 km/h (0 Bft)
18.02.2017 19:10 4,8 C 85 % 1026,8 hPa 0,0 l/m 0,0 km/h (0 Bft) W-NW 284 0 min 0,000 mm 0,0 UV-I 0 W/m 2,5 C 4,8 C 0,0 km/h (0 Bft)
18.02.2017 19:15 4,8 C 86 % 1026,8 hPa 0,0 l/m 0,0 km/h (0 Bft) W-NW 284 0 min 0,000 mm 0,0 UV-I 0 W/m 2,7 C 4,8 C 0,0 km/h (0 Bft)
18.02.2017 19:20 4,7 C 86 % 1026,8 hPa 0,0 l/m 0,0 km/h (0 Bft) W-NW 284 0 min 0,000 mm 0,0 UV-I 0 W/m 2,6 C 4,7 C 0,0 km/h (0 Bft)
18.02.2017 19:25 4,7 C 86 % 1026,8 hPa 0,0 l/m 0,0 km/h (0 Bft) W-NW 284 0 min 0,000 mm 0,0 UV-I 0 W/m 2,6 C 4,7 C 0,0 km/h (0 Bft)
18.02.2017 19:30 4,7 C 86 % 1026,8 hPa 0,0 l/m 0,0 km/h (0 Bft) W-NW 284 0 min 0,000 mm 0,0 UV-I 0 W/m 2,6 C 4,7 C 0,0 km/h (0 Bft)
18.02.2017 19:35 4,6 C 87 % 1026,8 hPa 0,0 l/m 0,0 km/h (0 Bft) W-NW 283 0 min 0,000 mm 0,0 UV-I 0 W/m 2,6 C 4,6 C 0,0 km/h (0 Bft)
18.02.2017 19:40 4,6 C 87 % 1026,8 hPa 0,0 l/m 0,0 km/h (0 Bft) W-NW 283 0 min 0,000 mm 0,0 UV-I 0 W/m 2,6 C 4,6 C 0,0 km/h (0 Bft)
18.02.2017 19:45 4,5 C 88 % 1026,8 hPa 0,0 l/m 0,0 km/h (0 Bft) W-NW 283 0 min 0,000 mm 0,0 UV-I 0 W/m 2,7 C 4,5 C 0,0 km/h (0 Bft)
18.02.2017 19:50 4,4 C 88 % 1026,8 hPa 0,0 l/m 0,0 km/h (0 Bft) W-NW 283 0 min 0,000 mm 0,0 UV-I 0 W/m 2,6 C 4,4 C 0,0 km/h (0 Bft)
18.02.2017 19:55 4,4 C 88 % 1026,7 hPa 0,0 l/m 0,0 km/h (0 Bft) SW 215 0 min 0,000 mm 0,0 UV-I 0 W/m 2,6 C 4,4 C 0,0 km/h (0 Bft)
18.02.2017 20:00 4,3 C 88 % 1026,7 hPa 0,0 l/m 0,0 km/h (0 Bft) W-NW 300 0 min 0,000 mm 0,0 UV-I 0 W/m 2,5 C 4,3 C 0,0 km/h (0 Bft)
18.02.2017 20:05 4,3 C 88 % 1026,7 hPa 0,0 l/m 0,0 km/h (0 Bft) W-NW 299 0 min 0,000 mm 0,0 UV-I 0 W/m 2,5 C 4,3 C 0,0 km/h (0 Bft)
18.02.2017 20:10 4,3 C 88 % 1026,8 hPa 0,0 l/m 0,0 km/h (0 Bft) W-NW 299 0 min 0,000 mm 0,0 UV-I 0 W/m 2,5 C 4,3 C 0,0 km/h (0 Bft)
18.02.2017 20:15 4,2 C 88 % 1026,8 hPa 0,0 l/m 0,0 km/h (0 Bft) W-NW 299 0 min 0,000 mm 0,0 UV-I 0 W/m 2,4 C 4,2 C 0,0 km/h (0 Bft)
18.02.2017 20:20 4,2 C 89 % 1026,8 hPa 0,0 l/m 0,0 km/h (0 Bft) W-NW 299 0 min 0,000 mm 0,0 UV-I 0 W/m 2,6 C 4,2 C 0,0 km/h (0 Bft)
18.02.2017 20:25 4,1 C 89 % 1026,7 hPa 0,0 l/m 0,0 km/h (0 Bft) W-NW 299 0 min 0,000 mm 0,0 UV-I 0 W/m 2,5 C 4,1 C 0,0 km/h (0 Bft)
18.02.2017 20:30 4,1 C 89 % 1026,8 hPa 0,0 l/m 0,0 km/h (0 Bft) W-NW 299 0 min 0,000 mm 0,0 UV-I 0 W/m 2,5 C 4,1 C 0,0 km/h (0 Bft)
18.02.2017 20:35 4,1 C 89 % 1026,7 hPa 0,0 l/m 0,0 km/h (0 Bft) W-NW 299 0 min 0,000 mm 0,0 UV-I 0 W/m 2,5 C 4,1 C 0,0 km/h (0 Bft)
18.02.2017 20:40 4,0 C 89 % 1026,7 hPa 0,0 l/m 0,0 km/h (0 Bft) W-NW 299 0 min 0,000 mm 0,0 UV-I 0 W/m 2,4 C 4,0 C 0,0 km/h (0 Bft)
18.02.2017 20:45 4,0 C 90 % 1026,6 hPa 0,0 l/m 0,0 km/h (0 Bft) W-NW 299 0 min 0,000 mm 0,0 UV-I 0 W/m 2,5 C 4,0 C 0,0 km/h (0 Bft)
18.02.2017 20:50 3,9 C 90 % 1026,7 hPa 0,0 l/m 0,0 km/h (0 Bft) S-SW 209 0 min 0,000 mm 0,0 UV-I 0 W/m 2,4 C 3,9 C 0,0 km/h (0 Bft)
18.02.2017 20:55 3,9 C 90 % 1026,7 hPa 0,0 l/m 0,0 km/h (0 Bft) S-SW 209 0 min 0,000 mm 0,0 UV-I 0 W/m 2,4 C 3,9 C 0,0 km/h (0 Bft)
18.02.2017 21:00 3,8 C 90 % 1026,7 hPa 0,0 l/m 0,0 km/h (0 Bft) S-SW 209 0 min 0,000 mm 0,0 UV-I 0 W/m 2,3 C 3,8 C 0,0 km/h (0 Bft)
18.02.2017 21:05 3,8 C 90 % 1026,7 hPa 0,0 l/m 0,0 km/h (0 Bft) S-SW 209 0 min 0,000 mm 0,0 UV-I 0 W/m 2,3 C 3,8 C 0,0 km/h (0 Bft)
18.02.2017 21:10 3,7 C 89 % 1026,7 hPa 0,0 l/m 0,0 km/h (0 Bft) S-SW 209 0 min 0,000 mm 0,0 UV-I 0 W/m 2,1 C 3,7 C 0,0 km/h (0 Bft)
18.02.2017 21:15 3,7 C 90 % 1026,7 hPa 0,0 l/m 0,0 km/h (0 Bft) S-SW 209 0 min 0,000 mm 0,0 UV-I 0 W/m 2,2 C 3,7 C 0,0 km/h (0 Bft)
18.02.2017 21:20 3,6 C 90 % 1026,7 hPa 0,0 l/m 0,0 km/h (0 Bft) S-SW 209 0 min 0,000 mm 0,0 UV-I 0 W/m 2,1 C 3,6 C 0,0 km/h (0 Bft)
18.02.2017 21:25 3,6 C 90 % 1026,7 hPa 0,0 l/m 0,0 km/h (0 Bft) S-SW 209 0 min 0,000 mm 0,0 UV-I 0 W/m 2,1 C 3,6 C 0,0 km/h (0 Bft)
18.02.2017 21:30 3,6 C 90 % 1026,7 hPa 0,0 l/m 0,0 km/h (0 Bft) S-SW 209 0 min 0,000 mm 0,0 UV-I 0 W/m 2,1 C 3,6 C 0,0 km/h (0 Bft)
18.02.2017 21:35 3,6 C 90 % 1026,7 hPa 0,0 l/m 0,0 km/h (0 Bft) S-SW 209 0 min 0,000 mm 0,0 UV-I 0 W/m 2,1 C 3,6 C 0,0 km/h (0 Bft)
18.02.2017 21:40 3,6 C 90 % 1026,7 hPa 0,0 l/m 0,0 km/h (0 Bft) S-SW 209 0 min 0,000 mm 0,0 UV-I 0 W/m 2,1 C 3,6 C 0,0 km/h (0 Bft)
18.02.2017 21:45 3,6 C 90 % 1026,7 hPa 0,0 l/m 0,0 km/h (0 Bft) S-SW 209 0 min 0,000 mm 0,0 UV-I 0 W/m 2,1 C 3,6 C 0,0 km/h (0 Bft)
18.02.2017 21:50 3,6 C 90 % 1026,7 hPa 0,0 l/m 0,0 km/h (0 Bft) S-SW 209 0 min 0,000 mm 0,0 UV-I 0 W/m 2,1 C 3,6 C 0,0 km/h (0 Bft)
18.02.2017 21:55 3,5 C 90 % 1026,7 hPa 0,0 l/m 0,0 km/h (0 Bft) S-SW 209 0 min 0,000 mm 0,0 UV-I 0 W/m 2,0 C 3,5 C 0,0 km/h (0 Bft)
18.02.2017 22:00 3,4 C 90 % 1026,6 hPa 0,0 l/m 0,0 km/h (0 Bft) NO 40 0 min 0,000 mm 0,0 UV-I 0 W/m 1,9 C 3,4 C 0,0 km/h (0 Bft)
18.02.2017 22:05 3,3 C 90 % 1026,6 hPa 0,0 l/m 0,0 km/h (0 Bft) W-NW 303 0 min 0,000 mm 0,0 UV-I 0 W/m 1,8 C 3,3 C 0,0 km/h (0 Bft)
18.02.2017 22:10 3,3 C 90 % 1026,6 hPa 0,0 l/m 0,0 km/h (0 Bft) W-NW 303 0 min 0,000 mm 0,0 UV-I 0 W/m 1,8 C 3,3 C 0,0 km/h (0 Bft)
18.02.2017 22:15 3,2 C 90 % 1026,6 hPa 0,0 l/m 0,0 km/h (0 Bft) W-NW 303 0 min 0,000 mm 0,0 UV-I 0 W/m 1,7 C 3,2 C 0,0 km/h (0 Bft)
18.02.2017 22:20 3,2 C 90 % 1026,5 hPa 0,0 l/m 0,0 km/h (0 Bft) W-NW 303 0 min 0,000 mm 0,0 UV-I 0 W/m 1,7 C 3,2 C 0,0 km/h (0 Bft)
18.02.2017 22:25 3,2 C 90 % 1026,5 hPa 0,0 l/m 0,0 km/h (0 Bft) W-NW 303 0 min 0,000 mm 0,0 UV-I 0 W/m 1,7 C 3,2 C 0,0 km/h (0 Bft)
18.02.2017 22:30 3,1 C 89 % 1026,5 hPa 0,0 l/m 0,0 km/h (0 Bft) W-NW 303 0 min 0,000 mm 0,0 UV-I 0 W/m 1,5 C 3,1 C 0,0 km/h (0 Bft)
18.02.2017 22:35 3,1 C 90 % 1026,5 hPa 0,0 l/m 0,0 km/h (0 Bft) W-NW 303 0 min 0,000 mm 0,0 UV-I 0 W/m 1,6 C 3,1 C 0,0 km/h (0 Bft)
18.02.2017 22:40 3,0 C 90 % 1026,5 hPa 0,0 l/m 0,0 km/h (0 Bft) W-NW 303 0 min 0,000 mm 0,0 UV-I 0 W/m 1,5 C 3,0 C 0,0 km/h (0 Bft)
18.02.2017 22:45 2,9 C 89 % 1026,4 hPa 0,0 l/m 0,0 km/h (0 Bft) W-NW 303 0 min 0,000 mm 0,0 UV-I 0 W/m 1,3 C 2,9 C 0,0 km/h (0 Bft)
18.02.2017 22:50 2,8 C 90 % 1026,4 hPa 0,0 l/m 0,0 km/h (0 Bft) W-NW 303 0 min 0,000 mm 0,0 UV-I 0 W/m 1,3 C 2,8 C 0,0 km/h (0 Bft)
18.02.2017 22:55 2,8 C 90 % 1026,4 hPa 0,0 l/m 0,0 km/h (0 Bft) W-NW 303 0 min 0,000 mm 0,0 UV-I 0 W/m 1,3 C 2,8 C 0,0 km/h (0 Bft)
18.02.2017 23:00 2,7 C 90 % 1026,4 hPa 0,0 l/m 0,0 km/h (0 Bft) W-NW 303 0 min 0,000 mm 0,0 UV-I 0 W/m 1,2 C 2,7 C 0,0 km/h (0 Bft)
18.02.2017 23:05 2,7 C 90 % 1026,3 hPa 0,0 l/m 0,0 km/h (0 Bft) W-NW 303 0 min 0,000 mm 0,0 UV-I 0 W/m 1,2 C 2,7 C 0,0 km/h (0 Bft)
18.02.2017 23:10 2,6 C 90 % 1026,3 hPa 0,0 l/m 0,0 km/h (0 Bft) SW 219 0 min 0,000 mm 0,0 UV-I 0 W/m 1,1 C 2,6 C 0,0 km/h (0 Bft)
18.02.2017 23:15 2,5 C 90 % 1026,2 hPa 0,0 l/m 0,0 km/h (0 Bft) SW 219 0 min 0,000 mm 0,0 UV-I 0 W/m 1,0 C 2,5 C 0,0 km/h (0 Bft)
18.02.2017 23:20 2,4 C 90 % 1026,1 hPa 0,0 l/m 0,0 km/h (0 Bft) SW 219 0 min 0,000 mm 0,0 UV-I 0 W/m 0,9 C 2,4 C 0,0 km/h (0 Bft)
18.02.2017 23:25 2,3 C 90 % 1026,1 hPa 0,0 l/m 0,0 km/h (0 Bft) SW 219 0 min 0,000 mm 0,0 UV-I 0 W/m 0,8 C 2,3 C 0,0 km/h (0 Bft)
18.02.2017 23:30 2,2 C 90 % 1026,1 hPa 0,0 l/m 0,0 km/h (0 Bft) SW 219 0 min 0,000 mm 0,0 UV-I 0 W/m 0,7 C 2,2 C 0,0 km/h (0 Bft)
18.02.2017 23:35 2,1 C 90 % 1026,0 hPa 0,0 l/m 0,0 km/h (0 Bft) SW 219 0 min 0,000 mm 0,0 UV-I 0 W/m 0,6 C 2,1 C 0,0 km/h (0 Bft)
18.02.2017 23:40 1,9 C 90 % 1026,0 hPa 0,0 l/m 0,0 km/h (0 Bft) SW 219 0 min 0,000 mm 0,0 UV-I 0 W/m 0,4 C 1,9 C 0,0 km/h (0 Bft)
18.02.2017 23:45 1,8 C 90 % 1025,9 hPa 0,0 l/m 0,0 km/h (0 Bft) SW 219 0 min 0,000 mm 0,0 UV-I 0 W/m 0,3 C 1,8 C 0,0 km/h (0 Bft)
18.02.2017 23:50 1,7 C 90 % 1026,0 hPa 0,0 l/m 0,0 km/h (0 Bft) SW 219 0 min 0,000 mm 0,0 UV-I 0 W/m 0,2 C 1,7 C 0,0 km/h (0 Bft)
18.02.2017 23:55 1,6 C 90 % 1026,0 hPa 0,0 l/m 0,0 km/h (0 Bft) SW 219 0 min 0,000 mm 0,0 UV-I 0 W/m 0,1 C 1,6 C 0,0 km/h (0 Bft)
_ Min-Zeit 23:55 15:00 23:45 - 00:00 - - - - - - 23:55 23:55 00:00
Minimum _ 1,6 C 70 % 1025,9 hPa - 0,0 km/h (0 Bft) - - - - - - 0,1 C 1,6 C 0,0 km/h (0 Bft)
_ Max-Zeit 13:15 04:15 11:40 00:00 14:25 - - 00:00 13:05 12:35 12:35 12:30 13:15 14:50
Maximum _ 7,0 C 94 % 1028,2 hPa 0,0 l/m 1,5 km/h
W-NW (1 Bft)
- - 0 min 0,076 mm 1,1 UV-I 183 W/m 4,4 C 7,0 C 8,0 km/h
W-NW (2 Bft)
Durchschnitt _ 4,8 C 88 % 1027,2 hPa #0,0 l/m 0,0 km/h (0 Bft) W-NW - #0 min. #0,305 mm 0,6 UV-I 70 W/m 2,9 C 4,8 C 0,3 km/h (0 Bft)